This demonstration page uses our WeatherBlox Daily Observations layout. Learn more.

Hourly Observations for March 21, 2019

Temp ( °F °C ) Dew Point ( °F °C ) Humidity (%) Winds ( mph kmh ) Pressure ( in mb ) Visibility ( mi km ) Precip ( " mm )
12:15 am 00:15 Clear 35 1.5 32 0.1 91 91 N 6 9 30.3 1026 10 16.0934 0 0
12:35 am 00:35 Clear 35 1.6 32 0.2 91 91 W 3 6 30.31 1026 10 16.0934 0 0
12:55 am 00:55 Clear 34 1 33 0.3 95 95 NNW 6 9 30.32 1027 10 16.0934 0 0
1:15 am 01:15 Clear 35 1.9 33 0.8 93 93 N 8 13 30.31 1026 10 16.0934 0 0
1:35 am 01:35 Clear 36 2.2 33 0.5 89 89 N 7 11 30.3 1026 10 16.0934 0 0
1:55 am 01:55 Clear 35 1.5 32 0.1 91 91 NNW 6 9 30.31 1026 10 16.0934 0 0
2:15 am 02:15 Clear 33 0.8 32 0 94 94 NNW 7 11 30.32 1027 10 16.0934 0 0
2:35 am 02:35 Clear 31 -0.6 30 -1.2 96 96 WNW 5 7 30.34 1027 10 16.0934 0 0
2:55 am 02:55 Clear 32 -0.1 31 -0.6 96 96 WNW 5 7 30.34 1027 10 16.0934 0 0
3:15 am 03:15 Clear 31 -0.3 31 -0.6 98 98 WNW 7 11 30.34 1027 10 16.0934 0 0
3:35 am 03:35 Clear 30 -1 30 -1.2 99 99 NW 7 11 30.34 1027 10 16.0934 0 0
3:55 am 03:55 Clear 32 0.1 32 -0.1 99 99 NNW 9 15 30.32 1027 10 16.0934 0 0
4:15 am 04:15 Clear 33 0.4 32 -0.1 96 96 NNW 9 15 30.32 1027 10 16.0934 0 0
4:35 am 04:35 Clear 33 0.3 32 -0.2 96 96 NW 7 11 30.31 1027 10 16.0934 0 0
4:55 am 04:55 Clear 31 -0.6 30 -1.1 96 96 NW 6 9 30.33 1027 10 16.0934 0 0
5:15 am 05:15 Clear 31 -0.5 30 -1 96 96 NW 7 11 30.32 1027 10 16.0934 0 0
5:35 am 05:35 Clear 30 -1.1 29 -1.4 98 98 NW 6 9 30.34 1027 10 16.0934 0 0
5:55 am 05:55 Clear 30 -1 30 -1.1 99 99 NW 6 9 30.34 1027 10 16.0934 0 0
6:15 am 06:15 Clear 30 -1.1 29 -1.4 98 98 WNW 6 9 30.34 1027 10 16.0934 0 0
6:35 am 06:35 Clear 30 -1.2 30 -1.3 99 99 WNW 3 6 30.35 1028 10 16.0934 0 0
6:55 am 06:55 Clear 29 -1.5 29 -1.5 100 100 WNW 3 6 30.35 1028 10 16.0934 0 0
7:15 am 07:15 Clear 29 -1.7 29 -1.7 100 100 WNW 5 7 30.35 1028 10 16.0934 0 0
7:35 am 07:35 Clear 29 -1.4 29 -1.4 100 100 W 8 13 30.36 1028 10 16.0934 0 0
7:55 am 07:55 Sunny 30 -1.2 30 -1.2 100 100 NW 5 7 30.35 1028 10 16.0934 0 0
8:15 am 08:15 Sunny 29 -1.5 29 -1.5 100 100 NW 5 7 30.36 1028 10 16.0934 0 0
8:35 am 08:35 Sunny 31 -0.4 31 -0.5 99 99 NW 3 6 30.35 1028 10 16.0934 0 0
8:55 am 08:55 Sunny 33 0.3 32 0.1 99 99 NW 3 6 30.34 1028 10 16.0934 0 0
9:15 am 09:15 Sunny 35 1.8 34 1 95 95 WNW 6 9 30.33 1027 10 16.0934 0 0
9:35 am 09:35 Sunny 36 2.2 34 1 92 92 WNW 7 11 30.32 1027 10 16.0934 0 0
9:55 am 09:55 Sunny 37 3 35 1.6 91 91 WNW 7 11 30.32 1027 10 16.0934 0 0
10:15 am 10:15 Sunny 39 4 36 2.3 89 89 W 6 9 30.32 1027 10 16.0934 0 0
10:35 am 10:35 Sunny 40 4.6 36 2.2 85 85 WNW 5 7 30.31 1026 10 16.0934 0 0
10:55 am 10:55 Sunny 42 5.5 36 2.4 81 81 WNW 5 7 30.3 1026 10 16.0934 0 0
11:15 am 11:15 Sunny 44 6.5 36 2.3 75 75 W 6 9 30.28 1026 10 16.0934 0 0
11:35 am 11:35 Sunny 45 7.1 35 1.6 68 68 W 5 7 30.28 1025 10 16.0934 0 0
11:55 am 11:55 Sunny 46 7.8 35 1.8 66 66 W 8 13 30.26 1025 10 16.0934 0 0
12:15 pm 12:15 Sunny 48 8.8 36 2.1 63 63 W 8 13 30.24 1024 10 16.0934 0 0
12:35 pm 12:35 Sunny 49 9.3 35 1.5 59 59 WSW 8 13 30.24 1024 10 16.0934 0 0
12:55 pm 12:55 Sunny 50 10.2 37 2.5 59 59 SW 7 11 30.22 1023 10 16.0934 0 0
1:15 pm 13:15 Sunny 52 11 36 2.1 55 55 WSW 7 11 30.2 1023 10 16.0934 0 0
1:35 pm 13:35 Sunny 53 11.5 37 2.5 54 54 W 7 11 30.19 1022 10 16.0934 0 0
1:55 pm 13:55 Sunny 54 12.1 37 2.8 53 53 W 6 9 30.18 1022 10 16.0934 0 0
2:15 pm 14:15 Sunny 54 12.4 37 2.9 53 53 W 6 9 30.17 1022 10 16.0934 0 0
2:35 pm 14:35 Sunny 55 12.8 37 2.7 51 51 WSW 9 15 30.16 1021 10 16.0934 0 0
2:55 pm 14:55 Sunny 56 13.2 36 2.2 48 48 WSW 5 7 30.14 1021 10 16.0934 0 0
3:15 pm 15:15 Sunny 57 13.8 37 2.5 47 47 W 8 13 30.13 1020 10 16.0934 0 0
3:35 pm 15:35 Sunny 58 14.6 37 2.9 46 46 W 6 9 30.12 1020 10 16.0934 0 0
3:55 pm 15:55 Sunny 59 15 37 2.9 44 44 W 6 9 30.12 1020 10 16.0934 0 0
4:15 pm 16:15 Sunny 59 15 37 2.6 44 44 WNW 5 7 30.11 1020 10 16.0934 0 0
4:35 pm 16:35 Sunny 60 15.3 37 2.6 43 43 WSW 3 6 30.11 1020 10 16.0934 0 0
4:55 pm 16:55 Sunny 59 15.2 36 2 41 41 Calm 30.1 1019 10 16.0934 0 0
5:15 pm 17:15 Sunny 60 15.5 36 2.1 41 41 W 7 11 30.09 1019 10 16.0934 0 0
5:35 pm 17:35 Sunny 60 15.7 37 2.5 41 41 WNW 3 6 30.08 1019 10 16.0934 0 0
5:55 pm 17:55 Sunny 60 15.5 37 2.5 42 42 Calm 30.08 1019 10 16.0934 0 0
6:15 pm 18:15 Sunny 60 15.6 36 2.3 41 41 Calm 30.08 1019 10 16.0934 0 0
6:35 pm 18:35 Sunny 60 15.6 36 2 40 40 Calm 30.08 1019 10 16.0934 0 0
6:55 pm 18:55 Sunny 59 14.8 37 3 45 45 SSE 3 6 30.09 1019 10 16.0934 0 0
7:35 pm 19:35 Sunny 54 12.4 38 3.5 55 55 SE 3 6 30.11 1020 10 16.0934 0 0
7:55 pm 19:55 Clear 52 11.3 38 3.5 59 59 SSE 5 7 30.12 1020 10 16.0934 0 0
8:15 pm 20:15 Clear 49 9.5 37 3 64 64 SE 6 9 30.14 1021 10 16.0934 0 0
8:35 pm 20:35 Clear 46 7.6 38 3.3 74 74 SE 7 11 30.15 1021 10 16.0934 0 0
8:55 pm 20:55 Clear 46 8 37 2.8 70 70 SE 7 11 30.15 1021 10 16.0934 0 0
9:35 pm 21:35 Clear 43 6.2 36 2.4 77 77 SE 5 7 30.17 1022 10 16.0934 0 0
9:55 pm 21:55 Clear 44 6.6 37 2.7 76 76 SSE 6 9 30.16 1021 10 16.0934 0 0
10:15 pm 22:15 Clear 44 6.7 36 2.3 74 74 S 8 13 30.16 1021 10 16.0934 0 0
10:35 pm 22:35 Clear 41 5.1 35 1.4 77 77 SE 7 11 30.18 1022 10 16.0934 0 0
10:55 pm 22:55 Clear 42 5.3 35 1.4 76 76 SSE 7 11 30.18 1022 10 16.0934 0 0
11:15 pm 23:15 Clear 41 4.8 34 1.1 77 77 S 6 9 30.19 1022 10 16.0934 0 0
11:35 pm 23:35 Clear 42 5.3 35 1.5 77 77 S 7 11 30.2 1023 10 16.0934 0 0
11:55 pm 23:55 Clear 42 5.8 34 1.2 73 73 S 7 11 30.19 1022 10 16.0934 0 0

Powered by AerisWeather